SNJ34 RJFU-RJTT

Flight info

Callsign SNJ34
Flight time 1h 47m
Altitude 37000
Route OOITA Y23 ARTIC Y71 XAC
Aircraft B738/M-SDE2E3FGHIRWXY/LB1

Departure

Time 2026-05-05 11:18
Airport Nagasaki Airport (RJFU)

Arrival

Time 2026-05-05 13:05
Airport Tokyo Haneda International Airport (RJTT)
Time Latitude Longitude Altitude Speed Heading
2026-05-05 10:52 32.91378 129.92188 18 ft 0 kts 48°
2026-05-05 11:09 32.91363 129.92167 19 ft 3 kts 48°
2026-05-05 11:09 32.91349 129.92149 19 ft 4 kts 45°
2026-05-05 11:09 32.91329 129.92127 21 ft 4 kts 40°
2026-05-05 11:09 32.91308 129.92107 18 ft 4 kts 37°
2026-05-05 11:10 32.91287 129.92087 20 ft 4 kts 48°
2026-05-05 11:10 32.91277 129.92068 18 ft 4 kts 121°
2026-05-05 11:10 32.91292 129.92050 18 ft 3 kts 137°
2026-05-05 11:10 32.91294 129.92048 17 ft 2 kts 137°
2026-05-05 11:14 32.91293 129.92049 17 ft 2 kts 137°
2026-05-05 11:15 32.91270 129.92074 16 ft 6 kts 137°
2026-05-05 11:15 32.91241 129.92106 16 ft 6 kts 137°
2026-05-05 11:15 32.91210 129.92139 18 ft 6 kts 139°
2026-05-05 11:15 32.91171 129.92181 16 ft 9 kts 138°
2026-05-05 11:16 32.91112 129.92243 17 ft 13 kts 138°
2026-05-05 11:16 32.91033 129.92328 19 ft 17 kts 138°
2026-05-05 11:16 32.90942 129.92425 18 ft 17 kts 138°
2026-05-05 11:16 32.90856 129.92517 18 ft 15 kts 138°
2026-05-05 11:17 32.90769 129.92503 18 ft 14 kts 229°
2026-05-05 11:17 32.90719 129.92406 19 ft 14 kts 274°
2026-05-05 11:17 32.90786 129.92316 20 ft 24 kts 319°
2026-05-05 11:17 32.91146 129.91933 15 ft 113 kts 318°
2026-05-05 11:18 32.91912 129.91120 173 ft 172 kts 315°
2026-05-05 11:18 32.92906 129.90039 754 ft 208 kts 316°
2026-05-05 11:18 32.93940 129.88927 1929 ft 200 kts 315°
2026-05-05 11:18 32.95036 129.87748 2568 ft 223 kts 314°
2026-05-05 11:19 32.96273 129.86419 2818 ft 256 kts 314°
2026-05-05 11:19 32.97655 129.84945 3407 ft 273 kts 315°
2026-05-05 11:19 32.99095 129.83413 4249 ft 280 kts 315°
2026-05-05 11:19 33.00675 129.82041 5189 ft 286 kts 335°
2026-05-05 11:20 33.02615 129.81614 6154 ft 287 kts
2026-05-05 11:20 33.04496 129.82331 7071 ft 286 kts 34°
2026-05-05 11:20 33.05965 129.83885 7920 ft 288 kts 49°
2026-05-05 11:20 33.07313 129.85686 8813 ft 294 kts 50°
2026-05-05 11:21 33.08687 129.87563 9676 ft 299 kts 50°
2026-05-05 11:21 33.10048 129.89403 10467 ft 306 kts 49°
2026-05-05 11:21 33.11539 129.91389 10752 ft 332 kts 49°
2026-05-05 11:21 33.13121 129.93535 11000 ft 355 kts 54°
2026-05-05 11:22 33.14211 129.96216 11456 ft 364 kts 78°
2026-05-05 11:22 33.14328 129.99201 12276 ft 360 kts 102°
2026-05-05 11:22 33.13522 130.01971 13040 ft 359 kts 124°
2026-05-05 11:22 33.12091 130.04488 13863 ft 362 kts 127°
2026-05-05 11:23 33.10663 130.06942 14499 ft 367 kts 127°
2026-05-05 11:23 33.09208 130.09480 15096 ft 374 kts 127°
2026-05-05 11:23 33.07742 130.12065 15749 ft 379 kts 127°
2026-05-05 11:23 33.06266 130.14683 16379 ft 383 kts 126°
2026-05-05 11:24 33.04769 130.17341 16943 ft 388 kts 127°
2026-05-05 11:24 33.03259 130.20020 16982 ft 388 kts 127°
2026-05-05 11:24 33.01747 130.22699 17036 ft 393 kts 126°
2026-05-05 11:24 33.00205 130.25425 17594 ft 398 kts 126°
2026-05-05 11:25 32.98804 130.28273 18242 ft 404 kts 113°
2026-05-05 11:25 32.98193 130.31571 18791 ft 413 kts 94°
2026-05-05 11:25 32.98485 130.34994 19296 ft 420 kts 79°
2026-05-05 11:25 32.99099 130.38373 19756 ft 426 kts 78°
2026-05-05 11:26 32.99762 130.41810 20196 ft 433 kts 78°
2026-05-05 11:26 33.00445 130.45375 20686 ft 438 kts 78°
2026-05-05 11:26 33.01105 130.48933 21176 ft 442 kts 79°
2026-05-05 11:26 33.01758 130.52545 21624 ft 448 kts 79°
2026-05-05 11:27 33.02405 130.56191 22051 ft 453 kts 79°
2026-05-05 11:27 33.03058 130.59896 22524 ft 458 kts 79°
2026-05-05 11:27 33.03717 130.63628 22934 ft 464 kts 79°
2026-05-05 11:27 33.04384 130.67419 23369 ft 468 kts 79°
2026-05-05 11:28 33.05046 130.71193 23794 ft 473 kts 79°
2026-05-05 11:28 33.05730 130.75100 24128 ft 478 kts 80°
2026-05-05 11:28 33.06413 130.79012 24435 ft 483 kts 80°
2026-05-05 11:28 33.07093 130.82908 24772 ft 488 kts 80°
2026-05-05 11:29 33.07786 130.86893 25108 ft 492 kts 80°
2026-05-05 11:29 33.08484 130.90905 25429 ft 497 kts 80°
2026-05-05 11:29 33.09188 130.94965 25712 ft 502 kts 81°
2026-05-05 11:29 33.09897 130.99065 26034 ft 506 kts 81°
2026-05-05 11:30 33.10601 131.03138 26346 ft 510 kts 81°
2026-05-05 11:30 33.11331 131.07375 26628 ft 515 kts 81°
2026-05-05 11:30 33.12052 131.11565 26944 ft 519 kts 81°
2026-05-05 11:30 33.12780 131.15801 27248 ft 523 kts 81°
2026-05-05 11:31 33.13509 131.20057 27486 ft 526 kts 81°
2026-05-05 11:31 33.14243 131.24352 27760 ft 530 kts 81°
2026-05-05 11:31 33.14958 131.28542 28025 ft 534 kts 82°
2026-05-05 11:31 33.15690 131.32841 28330 ft 536 kts 82°
2026-05-05 11:32 33.16434 131.37221 28572 ft 540 kts 82°
2026-05-05 11:32 33.17182 131.41641 28824 ft 545 kts 82°
2026-05-05 11:32 33.17933 131.46083 29125 ft 547 kts 82°
2026-05-05 11:32 33.18689 131.50557 29391 ft 550 kts 82°
2026-05-05 11:33 33.19447 131.55061 29611 ft 554 kts 82°
2026-05-05 11:33 33.20206 131.59583 29830 ft 557 kts 82°
2026-05-05 11:33 33.20971 131.64141 30058 ft 561 kts 82°
2026-05-05 11:33 33.21738 131.68725 30275 ft 564 kts 82°
2026-05-05 11:34 33.22747 131.73261 30509 ft 569 kts 72°
2026-05-05 11:34 33.24170 131.77676 30907 ft 568 kts 69°
2026-05-05 11:34 33.25700 131.81951 31297 ft 566 kts 67°
2026-05-05 11:34 33.27288 131.86275 31618 ft 566 kts 67°
2026-05-05 11:35 33.28850 131.90591 31900 ft 567 kts 68°
2026-05-05 11:35 33.30380 131.94943 32176 ft 567 kts 69°
2026-05-05 11:35 33.31872 131.99298 32485 ft 567 kts 69°
2026-05-05 11:35 33.33347 132.03674 32811 ft 566 kts 70°
2026-05-05 11:36 33.34807 132.08037 33148 ft 566 kts 70°
2026-05-05 11:36 33.36265 132.12401 33471 ft 565 kts 70°
2026-05-05 11:36 33.37729 132.16775 33787 ft 565 kts 70°
2026-05-05 11:36 33.39192 132.21138 34076 ft 565 kts 70°
2026-05-05 11:37 33.40659 132.25510 34337 ft 565 kts 70°
2026-05-05 11:37 33.42105 132.29826 34588 ft 564 kts 70°
2026-05-05 11:37 33.43564 132.34185 34839 ft 564 kts 70°
2026-05-05 11:37 33.45018 132.38534 35074 ft 564 kts 70°
2026-05-05 11:38 33.46485 132.42915 35318 ft 564 kts 70°
2026-05-05 11:38 33.47949 132.47289 35562 ft 564 kts 70°
2026-05-05 11:38 33.49408 132.51652 35801 ft 564 kts 70°
2026-05-05 11:38 33.50865 132.56017 36010 ft 564 kts 70°
2026-05-05 11:39 33.52302 132.60327 36267 ft 563 kts 70°
2026-05-05 11:39 33.53754 132.64694 36652 ft 559 kts 70°
2026-05-05 11:39 33.55186 132.69003 37111 ft 554 kts 70°
2026-05-05 11:40 33.58019 132.77551 37174 ft 554 kts 70°
2026-05-05 11:40 33.60844 132.86099 37187 ft 549 kts 70°
2026-05-05 11:41 33.63660 132.94641 37196 ft 548 kts 70°
2026-05-05 11:41 33.66113 133.03284 37215 ft 545 kts 76°
2026-05-05 11:42 33.68154 133.12060 37233 ft 549 kts 77°
2026-05-05 11:42 33.70209 133.20959 37209 ft 554 kts 77°
2026-05-05 11:43 33.72330 133.29890 37215 ft 556 kts 76°
2026-05-05 11:43 33.74466 133.38829 37205 ft 558 kts 76°
2026-05-05 11:44 33.76581 133.47740 37211 ft 557 kts 77°
2026-05-05 11:44 33.78698 133.56699 37161 ft 554 kts 77°
2026-05-05 11:45 33.80776 133.65480 37208 ft 549 kts 77°
2026-05-05 11:45 33.82873 133.74367 37212 ft 548 kts 77°
2026-05-05 11:46 33.83918 133.78801 37181 ft 547 kts 77°
2026-05-05 11:46 33.84951 133.83195 37296 ft 545 kts 77°
2026-05-05 11:47 33.85983 133.87591 37208 ft 546 kts 77°
2026-05-05 11:47 33.88016 133.96300 37211 ft 547 kts 77°
2026-05-05 11:48 33.91087 134.09493 37215 ft 553 kts 77°
2026-05-05 11:48 33.93153 134.18400 37207 ft 555 kts 77°
2026-05-05 11:49 33.95225 134.27367 37206 ft 556 kts 77°
2026-05-05 11:49 33.97281 134.36306 37206 ft 552 kts 77°
2026-05-05 11:50 33.99324 134.45219 37192 ft 551 kts 77°
2026-05-05 11:50 34.01355 134.54118 37188 ft 549 kts 77°
2026-05-05 11:51 34.03361 134.62936 37184 ft 548 kts 77°
2026-05-05 11:51 34.05379 134.71839 37196 ft 548 kts 77°
2026-05-05 11:52 34.07326 134.80465 37204 ft 550 kts 77°
2026-05-05 11:52 34.08972 134.87780 37209 ft 556 kts 77°
2026-05-05 11:53 34.11292 134.98116 37219 ft 557 kts 77°
2026-05-05 11:53 34.13122 135.06288 37204 ft 552 kts 77°
2026-05-05 11:54 34.15122 135.15246 37200 ft 550 kts 77°
2026-05-05 11:54 34.16667 135.22192 37207 ft 548 kts 77°
2026-05-05 11:55 34.18624 135.31021 37202 ft 548 kts 77°
2026-05-05 11:55 34.20593 135.39941 37205 ft 548 kts 77°
2026-05-05 11:56 34.22558 135.48872 37223 ft 550 kts 77°
2026-05-05 11:56 34.24516 135.57807 37208 ft 551 kts 77°
2026-05-05 11:57 34.26479 135.66796 37235 ft 553 kts 77°
2026-05-05 11:57 34.28433 135.75782 37216 ft 555 kts 77°
2026-05-05 11:58 34.30382 135.84770 37230 ft 557 kts 77°
2026-05-05 11:58 34.32359 135.93930 37210 ft 558 kts 77°
2026-05-05 11:59 34.34297 136.02938 37204 ft 558 kts 77°
2026-05-05 11:59 34.36244 136.12021 37219 ft 554 kts 77°
2026-05-05 12:00 34.38155 136.20984 37232 ft 550 kts 77°
2026-05-05 12:00 34.40058 136.29976 37234 ft 553 kts 77°
2026-05-05 12:01 34.41953 136.38965 37233 ft 554 kts 78°
2026-05-05 12:01 34.43856 136.48020 37277 ft 553 kts 77°
2026-05-05 12:02 34.45753 136.57078 37236 ft 555 kts 78°
2026-05-05 12:02 34.47625 136.66050 37251 ft 556 kts 78°
2026-05-05 12:03 34.49524 136.75192 37251 ft 557 kts 78°
2026-05-05 12:03 34.51383 136.84177 37259 ft 558 kts 77°
2026-05-05 12:04 34.53296 136.93484 37243 ft 559 kts 79°
2026-05-05 12:04 34.54147 137.02713 37259 ft 550 kts 94°
2026-05-05 12:05 34.54122 137.12024 37253 ft 549 kts 96°
2026-05-05 12:05 34.54094 137.21236 37251 ft 549 kts 95°
2026-05-05 12:06 34.54141 137.30514 37249 ft 549 kts 94°
2026-05-05 12:06 34.54205 137.39676 37251 ft 548 kts 94°
2026-05-05 12:07 34.54256 137.48999 37254 ft 548 kts 94°
2026-05-05 12:07 34.54295 137.58196 37265 ft 548 kts 94°
2026-05-05 12:08 34.54317 137.67482 36780 ft 553 kts 95°
2026-05-05 12:08 34.54319 137.72173 36259 ft 551 kts 95°
2026-05-05 12:08 34.54320 137.76775 35701 ft 551 kts 95°
2026-05-05 12:09 34.54319 137.81454 35106 ft 552 kts 95°
2026-05-05 12:09 34.54318 137.86061 34488 ft 553 kts 96°
2026-05-05 12:09 34.54314 137.90748 33778 ft 555 kts 96°
2026-05-05 12:09 34.54310 137.95289 33120 ft 555 kts 95°
2026-05-05 12:10 34.54305 138.00126 32457 ft 555 kts 95°
2026-05-05 12:10 34.54299 138.04778 32021 ft 550 kts 95°
2026-05-05 12:10 34.54293 138.09381 31709 ft 541 kts 94°
2026-05-05 12:10 34.54284 138.13963 31241 ft 538 kts 94°
2026-05-05 12:11 34.54272 138.18389 30791 ft 534 kts 94°
2026-05-05 12:11 34.54258 138.22925 30326 ft 531 kts 94°
2026-05-05 12:11 34.54244 138.27373 29765 ft 528 kts 94°
2026-05-05 12:11 34.54234 138.31846 29252 ft 523 kts 92°
2026-05-05 12:12 34.54550 138.36198 28778 ft 521 kts 82°
2026-05-05 12:12 34.55343 138.40472 28371 ft 514 kts 73°
2026-05-05 12:12 34.56544 138.44500 28099 ft 503 kts 63°
2026-05-05 12:12 34.58078 138.48244 27677 ft 497 kts 60°
2026-05-05 12:13 34.59679 138.51959 27192 ft 493 kts 60°
2026-05-05 12:13 34.61273 138.55646 26746 ft 489 kts 60°
2026-05-05 12:13 34.62827 138.59292 26280 ft 485 kts 60°
2026-05-05 12:13 34.64365 138.62963 25810 ft 482 kts 61°
2026-05-05 12:14 34.65842 138.66530 25366 ft 478 kts 61°
2026-05-05 12:14 34.67333 138.70145 24880 ft 474 kts 62°
2026-05-05 12:14 34.68805 138.73715 24423 ft 470 kts 62°
2026-05-05 12:14 34.70144 138.77137 23972 ft 468 kts 68°
2026-05-05 12:15 34.71100 138.80834 23438 ft 465 kts 77°
2026-05-05 12:15 34.71618 138.84690 23226 ft 452 kts 86°
2026-05-05 12:15 34.71664 138.88449 23126 ft 436 kts 93°
2026-05-05 12:15 34.71591 138.92111 22484 ft 437 kts 93°
2026-05-05 12:16 34.71531 138.95765 22042 ft 432 kts 92°
2026-05-05 12:16 34.71497 138.99441 21556 ft 428 kts 92°
2026-05-05 12:16 34.71478 139.03005 21161 ft 422 kts 91°
2026-05-05 12:16 34.71460 139.06548 20742 ft 417 kts 91°
2026-05-05 12:17 34.71440 139.10031 20310 ft 413 kts 91°
2026-05-05 12:17 34.71418 139.13540 19877 ft 409 kts 91°
2026-05-05 12:17 34.71394 139.16978 19441 ft 404 kts 91°
2026-05-05 12:17 34.71370 139.20381 19008 ft 400 kts 91°
2026-05-05 12:18 34.71345 139.23762 18584 ft 395 kts 91°
2026-05-05 12:18 34.71320 139.27024 18107 ft 391 kts 91°
2026-05-05 12:18 34.71294 139.30325 17653 ft 386 kts 91°
2026-05-05 12:18 34.71270 139.33327 17260 ft 381 kts 91°
2026-05-05 12:19 34.71244 139.36515 16932 ft 374 kts 92°
2026-05-05 12:19 34.71387 139.39676 16424 ft 374 kts 82°
2026-05-05 12:19 34.71996 139.42726 16020 ft 370 kts 72°
2026-05-05 12:19 34.73025 139.45589 15611 ft 367 kts 63°
2026-05-05 12:20 34.74260 139.48283 15216 ft 363 kts 61°
2026-05-05 12:20 34.75515 139.50936 14799 ft 360 kts 61°
2026-05-05 12:20 34.76739 139.53531 14413 ft 357 kts 62°
2026-05-05 12:20 34.77975 139.56182 14062 ft 353 kts 62°
2026-05-05 12:21 34.79140 139.58704 13915 ft 342 kts 62°
2026-05-05 12:21 34.80290 139.61207 13740 ft 333 kts 62°
2026-05-05 12:21 34.81404 139.63644 13589 ft 323 kts 62°
2026-05-05 12:21 34.82490 139.66020 13241 ft 321 kts 62°
2026-05-05 12:22 34.83616 139.68314 13076 ft 313 kts 52°
2026-05-05 12:22 34.85244 139.70009 13006 ft 303 kts 28°
2026-05-05 12:22 34.87161 139.70950 13008 ft 292 kts 18°
2026-05-05 12:22 34.89083 139.71706 13006 ft 294 kts 18°
2026-05-05 12:23 34.91026 139.72461 13000 ft 293 kts 18°
2026-05-05 12:23 34.92948 139.73223 12983 ft 289 kts 18°
2026-05-05 12:23 34.94804 139.73971 13003 ft 280 kts 18°
2026-05-05 12:23 34.96618 139.74708 12992 ft 262 kts 18°
2026-05-05 12:24 34.98276 139.75419 12968 ft 245 kts 26°
2026-05-05 12:24 34.99576 139.76616 12845 ft 233 kts 45°
2026-05-05 12:24 35.00726 139.78008 12691 ft 230 kts 45°
2026-05-05 12:24 35.01867 139.79382 12551 ft 229 kts 45°
2026-05-05 12:25 35.03006 139.80751 12409 ft 229 kts 45°
2026-05-05 12:25 35.04145 139.82115 12287 ft 230 kts 45°
2026-05-05 12:25 35.05292 139.83486 12132 ft 232 kts 45°
2026-05-05 12:25 35.06448 139.84867 11957 ft 233 kts 45°
2026-05-05 12:26 35.07597 139.86238 11817 ft 232 kts 45°
2026-05-05 12:26 35.08748 139.87613 11662 ft 231 kts 45°
2026-05-05 12:26 35.09895 139.88984 11526 ft 230 kts 45°
2026-05-05 12:26 35.11043 139.90355 11396 ft 231 kts 45°
2026-05-05 12:27 35.12193 139.91729 11224 ft 230 kts 45°
2026-05-05 12:27 35.13331 139.93088 11095 ft 229 kts 45°
2026-05-05 12:27 35.14470 139.94450 10938 ft 229 kts 44°
2026-05-05 12:27 35.15590 139.95790 10795 ft 228 kts 45°
2026-05-05 12:28 35.16714 139.97135 10643 ft 227 kts 44°
2026-05-05 12:28 35.17850 139.98495 10517 ft 227 kts 45°
2026-05-05 12:28 35.18958 139.99824 10378 ft 221 kts 45°
2026-05-05 12:28 35.20040 140.01120 10226 ft 211 kts 45°
2026-05-05 12:29 35.21078 140.02366 10103 ft 208 kts 45°
2026-05-05 12:29 35.22113 140.03607 9942 ft 209 kts 45°
2026-05-05 12:29 35.23144 140.04843 9799 ft 206 kts 45°
2026-05-05 12:29 35.24145 140.06045 9663 ft 202 kts 45°
2026-05-05 12:30 35.25150 140.07251 9565 ft 201 kts 45°
2026-05-05 12:30 35.26158 140.08463 9436 ft 204 kts 44°
2026-05-05 12:30 35.27182 140.09692 9279 ft 206 kts 45°
2026-05-05 12:30 35.28198 140.10914 9153 ft 203 kts 45°
2026-05-05 12:31 35.29179 140.12094 9034 ft 200 kts 45°
2026-05-05 12:31 35.30172 140.13290 8894 ft 198 kts 45°
2026-05-05 12:31 35.31150 140.14467 8768 ft 198 kts 45°
2026-05-05 12:31 35.32153 140.15674 8689 ft 203 kts 44°
2026-05-05 12:32 35.33159 140.16886 8533 ft 204 kts 44°
2026-05-05 12:32 35.34166 140.18098 8381 ft 202 kts 45°
2026-05-05 12:32 35.35162 140.19300 8271 ft 200 kts 45°
2026-05-05 12:32 35.36157 140.20500 8142 ft 200 kts 44°
2026-05-05 12:33 35.37185 140.21632 7994 ft 198 kts 28°
2026-05-05 12:33 35.38494 140.21942 7941 ft 191 kts 354°
2026-05-05 12:33 35.39817 140.21827 7867 ft 196 kts 355°
2026-05-05 12:33 35.41190 140.21686 7761 ft 201 kts 354°
2026-05-05 12:34 35.42576 140.21534 7641 ft 198 kts 353°
2026-05-05 12:34 35.43715 140.21406 7587 ft 194 kts 353°
2026-05-05 12:34 35.44598 140.21310 7532 ft 194 kts 353°
2026-05-05 12:34 35.45182 140.21244 7489 ft 195 kts 353°
2026-05-05 12:35 35.46525 140.21102 7375 ft 192 kts 354°
2026-05-05 12:35 35.47859 140.20966 7326 ft 192 kts 353°
2026-05-05 12:35 35.49199 140.20824 7212 ft 198 kts 354°
2026-05-05 12:35 35.50552 140.20687 7161 ft 194 kts 354°
2026-05-05 12:36 35.51435 140.20607 7082 ft 195 kts 354°
2026-05-05 12:36 35.52937 140.20453 6978 ft 196 kts 353°
2026-05-05 12:36 35.54281 140.20114 6753 ft 197 kts 343°
2026-05-05 12:36 35.55573 140.19656 6499 ft 196 kts 342°
2026-05-05 12:37 35.56887 140.19186 6264 ft 193 kts 342°
2026-05-05 12:37 35.58160 140.18689 6023 ft 190 kts 330°
2026-05-05 12:37 35.58799 140.18013 5887 ft 181 kts 300°
2026-05-05 12:37 35.59625 140.16251 5722 ft 183 kts 298°
2026-05-05 12:38 35.60272 140.14895 5616 ft 187 kts 296°
2026-05-05 12:38 35.60558 140.13385 5443 ft 180 kts 265°
2026-05-05 12:38 35.60537 140.12353 5360 ft 179 kts 266°
2026-05-05 12:38 35.60533 140.10417 5204 ft 180 kts 267°
2026-05-05 12:39 35.60533 140.09354 5115 ft 181 kts 266°
2026-05-05 12:39 35.60528 140.07295 5015 ft 179 kts 266°
2026-05-05 12:39 35.60519 140.06256 4744 ft 188 kts 266°
2026-05-05 12:39 35.60512 140.04676 4487 ft 182 kts 266°
2026-05-05 12:40 35.60507 140.03147 4206 ft 179 kts 266°
2026-05-05 12:40 35.60500 140.01627 3956 ft 173 kts 265°
2026-05-05 12:40 35.60494 140.00181 3735 ft 169 kts 265°
2026-05-05 12:40 35.60487 139.98742 3531 ft 167 kts 264°
2026-05-05 12:41 35.60480 139.97314 3316 ft 167 kts 264°
2026-05-05 12:41 35.60471 139.95880 3098 ft 168 kts 264°
2026-05-05 12:41 35.60463 139.94440 2871 ft 169 kts 263°
2026-05-05 12:41 35.60455 139.92989 2649 ft 170 kts 263°
2026-05-05 12:42 35.60448 139.91570 2472 ft 161 kts 263°
2026-05-05 12:42 35.60442 139.90253 2266 ft 147 kts 262°
2026-05-05 12:42 35.60434 139.88996 2049 ft 145 kts 261°
2026-05-05 12:42 35.60426 139.87765 1840 ft 143 kts 261°
2026-05-05 12:43 35.60415 139.86545 1649 ft 144 kts 262°
2026-05-05 12:43 35.60414 139.85311 1577 ft 147 kts 263°
2026-05-05 12:43 35.60433 139.84152 1626 ft 148 kts 262°
2026-05-05 12:43 35.60400 139.82918 1595 ft 142 kts 255°
2026-05-05 12:44 35.60185 139.81724 1277 ft 141 kts 243°
2026-05-05 12:44 35.59755 139.80706 1049 ft 134 kts 226°
2026-05-05 12:44 35.59125 139.79869 785 ft 135 kts 221°
2026-05-05 12:44 35.58405 139.79116 454 ft 134 kts 214°
2026-05-05 12:45 35.57669 139.78458 336 ft 130 kts 210°
2026-05-05 12:45 35.56902 139.77824 138 ft 132 kts 211°
2026-05-05 12:45 35.56149 139.77196 50 ft 130 kts 212°
2026-05-05 12:45 35.55415 139.76560 37 ft 130 kts 212°
2026-05-05 12:46 35.54739 139.75969 231 ft 108 kts 212°
2026-05-05 12:46 35.54082 139.75421 603 ft 129 kts 209°
2026-05-05 12:46 35.53172 139.74745 811 ft 170 kts 207°
2026-05-05 12:46 35.52128 139.74065 1734 ft 171 kts 204°
2026-05-05 12:47 35.51074 139.73440 2817 ft 175 kts 208°
2026-05-05 12:47 35.50283 139.72273 3609 ft 199 kts 249°
2026-05-05 12:47 35.50287 139.70530 3754 ft 224 kts 285°
2026-05-05 12:47 35.51285 139.68946 3689 ft 232 kts 316°
2026-05-05 12:48 35.52682 139.67944 3613 ft 238 kts 347°
2026-05-05 12:48 35.54238 139.68143 3778 ft 232 kts 18°
2026-05-05 12:48 35.55799 139.68782 3852 ft 236 kts 18°
2026-05-05 12:48 35.57346 139.69397 3931 ft 236 kts 17°
2026-05-05 12:49 35.58976 139.70039 4017 ft 263 kts 17°
2026-05-05 12:49 35.60795 139.70746 3980 ft 282 kts 17°
2026-05-05 12:49 35.62581 139.71435 3976 ft 283 kts 17°
2026-05-05 12:49 35.64477 139.72162 3958 ft 281 kts 17°
2026-05-05 12:50 35.66324 139.72869 4016 ft 278 kts 17°
2026-05-05 12:50 35.68188 139.73578 4022 ft 282 kts 17°
2026-05-05 12:50 35.70052 139.74280 4033 ft 286 kts 17°
2026-05-05 12:50 35.71983 139.75016 3940 ft 280 kts 17°
2026-05-05 12:51 35.73807 139.75706 3962 ft 266 kts 17°
2026-05-05 12:51 35.75377 139.76678 3952 ft 250 kts 47°
2026-05-05 12:51 35.76166 139.78484 3975 ft 232 kts 85°
2026-05-05 12:51 35.76333 139.80407 3986 ft 228 kts 89°
2026-05-05 12:52 35.76482 139.82354 3980 ft 229 kts 89°
2026-05-05 12:52 35.76632 139.84315 4015 ft 231 kts 89°
2026-05-05 12:52 35.76784 139.86306 3977 ft 234 kts 89°
2026-05-05 12:52 35.76931 139.88298 3964 ft 233 kts 89°
2026-05-05 12:53 35.77075 139.90292 3958 ft 233 kts 89°
2026-05-05 12:53 35.77214 139.92269 3989 ft 234 kts 89°
2026-05-05 12:53 35.77349 139.94233 3965 ft 229 kts 89°
2026-05-05 12:53 35.77483 139.96169 3967 ft 227 kts 89°
2026-05-05 12:54 35.77747 140.00034 3989 ft 228 kts 89°
2026-05-05 12:54 35.77857 140.01668 3982 ft 231 kts 89°
2026-05-05 12:54 35.77988 140.03651 3977 ft 232 kts 89°
2026-05-05 12:55 35.78118 140.05635 3979 ft 234 kts 89°
2026-05-05 12:55 35.78213 140.07682 3975 ft 244 kts 98°
2026-05-05 12:55 35.77591 140.09664 4051 ft 257 kts 128°
2026-05-05 12:55 35.77002 140.10479 3939 ft 259 kts 144°
2026-05-05 12:56 35.75359 140.11362 3981 ft 246 kts 176°
2026-05-05 12:56 35.73679 140.11228 3977 ft 229 kts 191°
2026-05-05 12:56 35.72187 140.10856 3961 ft 210 kts 193°
2026-05-05 12:56 35.70804 140.10481 3972 ft 201 kts 193°
2026-05-05 12:57 35.69495 140.10129 3934 ft 186 kts 193°
2026-05-05 12:57 35.68286 140.09813 3951 ft 172 kts 193°
2026-05-05 12:57 35.67112 140.09511 3975 ft 170 kts 193°
2026-05-05 12:57 35.65969 140.09219 3959 ft 168 kts 193°
2026-05-05 12:58 35.64840 140.08933 3945 ft 164 kts 192°
2026-05-05 12:58 35.63718 140.08651 4007 ft 167 kts 193°
2026-05-05 12:58 35.62550 140.08356 3971 ft 168 kts 193°
2026-05-05 12:58 35.61422 140.08030 3960 ft 168 kts 204°
2026-05-05 12:59 35.60619 140.07033 3974 ft 170 kts 246°
2026-05-05 12:59 35.60527 140.05575 3987 ft 174 kts 266°
2026-05-05 12:59 35.60521 140.04054 3982 ft 177 kts 265°
2026-05-05 13:00 35.60501 140.01059 3963 ft 174 kts 265°
2026-05-05 13:00 35.60492 139.99594 3961 ft 174 kts 265°
2026-05-05 13:01 35.60471 139.95360 3653 ft 138 kts 264°
2026-05-05 13:01 35.60465 139.94207 3166 ft 135 kts 262°
2026-05-05 13:01 35.60457 139.93054 2703 ft 134 kts 261°
2026-05-05 13:01 35.60448 139.91908 2549 ft 142 kts 262°
2026-05-05 13:02 35.60439 139.90699 2340 ft 143 kts 262°
2026-05-05 13:02 35.60432 139.89466 2133 ft 142 kts 262°
2026-05-05 13:02 35.60424 139.88272 1940 ft 142 kts 261°
2026-05-05 13:02 35.60416 139.87050 1740 ft 143 kts 261°
2026-05-05 13:03 35.60408 139.85844 1552 ft 142 kts 262°
2026-05-05 13:03 35.60400 139.84623 1354 ft 143 kts 262°
2026-05-05 13:03 35.60393 139.83435 1195 ft 143 kts 262°
2026-05-05 13:03 35.60382 139.82236 1063 ft 141 kts 261°
2026-05-05 13:04 35.60163 139.81065 743 ft 138 kts 236°
2026-05-05 13:04 35.59591 139.80186 524 ft 130 kts 217°
2026-05-05 13:04 35.58902 139.79537 433 ft 130 kts 213°
2026-05-05 13:04 35.58119 139.78851 379 ft 133 kts 212°
2026-05-05 13:05 35.57363 139.78205 226 ft 133 kts 210°
2026-05-05 13:05 35.56607 139.77582 63 ft 130 kts 212°
2026-05-05 13:05 35.55889 139.76962 32 ft 115 kts 203°
2026-05-05 13:05 35.55606 139.76863 23 ft 0 kts 122°
2026-05-05 13:06 35.55606 139.76865 23 ft 0 kts 121°
2026-05-05 13:06 35.55593 139.76891 25 ft 14 kts 120°
2026-05-05 13:07 35.55522 139.76990 22 ft 16 kts 147°
2026-05-05 13:07 35.55415 139.77065 21 ft 18 kts 150°
2026-05-05 13:07 35.55308 139.77142 20 ft 17 kts 150°
2026-05-05 13:07 35.55205 139.77214 22 ft 16 kts 150°
2026-05-05 13:08 35.55145 139.77310 18 ft 16 kts 82°
2026-05-05 13:08 35.55169 139.77366 18 ft 1 kts 58°
2026-05-05 13:08 35.55238 139.77510 21 ft 25 kts 59°
2026-05-05 13:08 35.55335 139.77625 21 ft 19 kts 354°
2026-05-05 13:09 35.55454 139.77549 22 ft 19 kts 330°
2026-05-05 13:09 35.55568 139.77468 21 ft 19 kts 330°
2026-05-05 13:09 35.55670 139.77394 21 ft 16 kts 329°
2026-05-05 13:09 35.55769 139.77325 21 ft 17 kts 330°
2026-05-05 13:10 35.55871 139.77254 23 ft 16 kts 336°
2026-05-05 13:10 35.55945 139.77320 24 ft 14 kts 65°
2026-05-05 13:10 35.55994 139.77436 23 ft 16 kts 57°
2026-05-05 13:10 35.56051 139.77554 23 ft 16 kts 60°
2026-05-05 13:11 35.56110 139.77676 23 ft 17 kts 59°
2026-05-05 13:11 35.56152 139.77767 25 ft 16 kts 60°
2026-05-05 13:11 35.56211 139.77890 24 ft 17 kts 60°
2026-05-05 13:11 35.56271 139.78018 28 ft 18 kts 59°
2026-05-05 13:12 35.56332 139.78145 28 ft 16 kts 60°
2026-05-05 13:12 35.56288 139.78248 25 ft 16 kts 151°
2026-05-05 13:12 35.56189 139.78319 24 ft 17 kts 149°
2026-05-05 13:12 35.56090 139.78388 24 ft 17 kts 152°
2026-05-05 13:13 35.55988 139.78461 22 ft 17 kts 150°
2026-05-05 13:13 35.55880 139.78537 24 ft 18 kts 150°
2026-05-05 13:13 35.55774 139.78612 24 ft 17 kts 150°
2026-05-05 13:13 35.55675 139.78683 26 ft 16 kts 146°
2026-05-05 13:14 35.55661 139.78780 25 ft 10 kts 58°
2026-05-05 13:14 35.55668 139.78810 25 ft 2 kts 110°
2026-05-05 13:14 35.55653 139.78829 24 ft 4 kts 141°
2026-05-05 13:14 35.55615 139.78852 27 ft 5 kts 150°
2026-05-05 13:15 35.55603 139.78860 26 ft 0 kts 150°